{"data":{"norad_id":65348,"epoch":"2026-05-24T21:45:37.165824Z","epoch_age_seconds":93144,"freshness":"FRESH","line1":"1 65348U 25189AB  26144.90668016  .00010352  00000+0  36111-3 0  9999","line2":"2 65348  53.1605 212.8825 0001344  86.6278 273.4877 15.30203352 42777","mean_motion":15.30203352,"eccentricity":0.0001344,"inclination_deg":53.1605,"raan_deg":212.8825,"arg_perigee_deg":86.6278,"mean_anomaly_deg":273.4877,"bstar":0.00036111,"rev_number":4277,"period_min":94.105139563176,"perigee_km":474.2839717968,"apogee_km":476.12615014279,"semimajor_km":6853.3420609698,"source":"CELESTRAK","updated_at":"2026-05-25T13:38:20.763709Z"}}